| time (UTC) | temp C | wind direction | speed KPH | gust KPH | rain 1hr cm | rain 24hr cm | rain mn cm | humidity % | barometer mb |
| 20260906074129 | 15 | 330 | 25.7 | 29.0 | 0.00 | 0.00 | 0.00 | 81 | 1010.6 |
| 20260906072130 | 15 | 326 | 27.4 | 30.6 | 0.00 | 0.00 | 0.00 | 81 | 1010.5 |
| 20260906070457 | 15 | 328 | 25.7 | 27.4 | 0.00 | 0.00 | 0.00 | 84 | 1010.2 |
| 20260906064458 | 15 | 332 | 27.4 | 29.0 | 0.00 | 0.00 | 0.00 | 82 | 1010.0 |
| 20260905200459 | 14 | 10 | 30.6 | 37.0 | 0.00 | 0.00 | 0.00 | 76 | 1003.7 |
| 20260905190455 | 14 | 16 | 37.0 | 43.5 | 0.00 | 0.00 | 0.00 | 68 | 1003.1 |
| 20260905180454 | 15 | 20 | 38.6 | 45.1 | 0.00 | 0.00 | 0.00 | 75 | 1002.1 |
| 20260905174126 | 15 | 19 | 40.2 | 45.1 | 0.00 | 0.00 | 0.00 | 73 | 1001.8 |
| 20260905170456 | 15 | 16 | 30.6 | 33.8 | 0.00 | 0.00 | 0.00 | 84 | 1001.4 |
| 20260905164458 | 15 | 22 | 27.4 | 30.6 | 0.00 | 0.00 | 0.00 | 83 | 1001.2 |
| 20260905162128 | 14 | 356 | 27.4 | 40.2 | 0.00 | 0.00 | 0.00 | 84 | 1000.8 |
| 20260905150456 | 15 | 309 | 27.4 | 30.6 | 0.00 | 0.00 | 0.00 | 75 | 1000.1 |
| 20260905144456 | 15 | 305 | 27.4 | 30.6 | 0.00 | 0.00 | 0.00 | 74 | 1000.0 |
| 20260905142456 | 15 | 303 | 29.0 | 33.8 | 0.00 | 0.00 | 0.00 | 81 | 999.9 |
| 20260905134455 | 15 | 314 | 27.4 | 30.6 | 0.00 | 0.00 | 0.00 | 79 | 999.5 |
| 20260905130500 | 15 | 314 | 27.4 | 30.6 | 0.00 | 0.00 | 0.00 | 81 | 999.4 |
| 20260905124455 | 15 | 312 | 27.4 | 32.2 | 0.00 | 0.00 | 0.00 | 80 | 999.2 |
| 20260905122127 | 15 | 322 | 25.7 | 29.0 | 0.00 | 0.00 | 0.00 | 78 | 999.1 |
| 20260905114456 | 15 | 324 | 25.7 | 29.0 | 0.00 | 0.00 | 0.00 | 71 | 998.8 |
| 20260905112128 | 15 | 325 | 24.1 | 30.6 | 0.00 | 0.00 | 0.00 | 70 | 998.8 |
| 20260905102456 | 15 | 333 | 20.9 | 24.1 | 0.00 | 0.00 | 0.00 | 71 | 998.1 |
| 20260905100456 | 15 | 339 | 20.9 | 24.1 | 0.00 | 0.00 | 0.00 | 70 | 997.9 |
| 20260905094455 | 15 | 349 | 22.5 | 25.7 | 0.00 | 0.00 | 0.00 | 70 | 997.7 |
| 20260905092456 | 15 | 352 | 22.5 | 27.4 | 0.00 | 0.00 | 0.00 | 73 | 997.5 |
| 20260905090456 | 15 | 9 | 19.3 | 24.1 | 0.00 | 0.00 | 0.00 | 69 | 997.3 |
| 20260905084456 | 15 | 5 | 19.3 | 20.9 | 0.00 | 0.00 | 0.00 | 68 | 997.2 |